Meteo Giornale » Osservazioni meteo Italia » Decimomannu

ore: 23:55 - Osservazioni Meteo Decimomannu
Lat. 39° 21' N Lon. 8° 58' E Alt. 29 metri s.l.m.

nuvoloso Europe/Rome

16 °C

Nuvoloso

Temp. 24 Ore

11 °C

22 °C

Nord

13 Km/h

Dew point 14 °C

Umidità 87 %

Visibilità  10 Km

Il sole sorge alle ore 06:47

Il sole tramonta alle ore 17:27

Data e Ora Cielo e Fenomeni T °C DP °C Um. % Pres. hPa Vis. km Vento km/h
Ieri h: 23:55 nuvoloso Nuvoloso 16 14 87 1023 10 N 13
Ieri h: 22:55 molto_nuvoloso Molto Nuvoloso 16 14 87 1024 10 N 1.8
Ieri h: 21:55 molto_nuvoloso Molto Nuvoloso 15 13 87 1023 10 S 7.4
Ieri h: 20:55 sereno Sereno 15 13 87 1023 10 N/NO 9.3
Ieri h: 19:55 sereno Sereno 15 14 93 1023 10 N/NO 13
Ieri h: 18:55 poco_nuvoloso Poco Nuvoloso 16 14 87 1023 10 N/NO 11.1
Ieri h: 17:55 poco_nuvoloso Poco Nuvoloso 17 14 82 1022 10 NO 20.3
Ieri h: 16:55 poco_nuvoloso Poco Nuvoloso 18 15 82 1022 10 NO 27.8
Ieri h: 15:55 poco_nuvoloso Poco Nuvoloso 20 14 68 1022 10 NO 33.3
Ieri h: 14:55 poco_nuvoloso Poco Nuvoloso 20 14 68 1022 10 NO 35.2
Ieri h: 13:55 poco_nuvoloso Poco Nuvoloso 21 12 56 1022 10 NO 31.5
Ieri h: 12:55 poco_nuvoloso Poco Nuvoloso 21 13 60 1022 10 O/NO 27.8
Ieri h: 11:55 nuvoloso Nuvoloso 22 15 64 1023 10 NO 20.3
Ieri h: 10:55 nuvoloso Nuvoloso 20 16 77 1023 10 N/NO 16.7
Ieri h: 09:55 molto_nuvoloso Molto Nuvoloso 19 15 77 1023 10 N/NO 13
Ieri h: 08:55 nuvoloso Nuvoloso 17 14 82 1022 10 N/NO 9.3
Ieri h: 07:55 nuvoloso Nuvoloso 15 12 82 1023 10 N 5.5
Ieri h: 06:55 poco_nuvoloso Poco Nuvoloso 13 10 81 1022 10 N 3.7
Ieri h: 05:55 poco_nuvoloso Poco Nuvoloso 13 10 81 1022 10 O/NO 7.4
Ieri h: 04:55 poco_nuvoloso Poco Nuvoloso 13 10 81 1011 10 O 7.4
Ieri h: 03:55 nuvoloso Nuvoloso 13 10 81 1021 10 NO 7.4
Ieri h: 02:55 poco_nuvoloso Poco Nuvoloso 11 8 81 1021 10 N/NE 9.3
Ieri h: 01:55 poco_nuvoloso Poco Nuvoloso 11 8 81 1022 10 N 5.5
Ieri h: 00:55 poco_nuvoloso Poco Nuvoloso 12 9 81 1022 10 N 3.7
Ieri h: 23:55 poco_nuvoloso Poco Nuvoloso 12 10 87 1022 10 N 5.5